Orbital Elements
Epoch 2007 Dec. 6.0 TT = JDT 2454440.5
T 2007 Nov. 26.54632 TT MPC
q 2.6747629 (2000.0) P Q
z +0.0038338 Peri. 253.41415 -0.59755750 +0.77315524
+/-0.0000013 Node 335.72190 -0.38148605 -0.50723793
e 0.9897455 Incl. 31.11928 -0.70526125 -0.38071072
From 634 observations 2006 Nov. 11-2008 Sept. 19, mean residual 0".5.
|